• In Hungary
  • List of Countries
  • For 7 days
  • Water Temperature
  • Satellite Maps
  • Weather Map
  • News
  • Weather Widgets
  • user-avatar
    Login

    Hourly Weather Przyruda

    Today, 13 December, Wednesday

    Time Temperature Precipitation Wind Pressure Humidity
    00:00 0°C° 0 mm 7 mps 753 mmHg 73%
    01:00 0°C° 0 mm 5 mps 753 mmHg 76%
    02:00 0°C° 0 mm 5 mps 754 mmHg 78%
    03:00 -1°C° 0 mm 4 mps 754 mmHg 81%
    04:00 -1°C° 0 mm 4 mps 755 mmHg 84%
    05:00 -2°C° 0 mm 4 mps 755 mmHg 86%
    06:00 -2°C° 0 mm 4 mps 756 mmHg 88%
    07:00 -1°C° 0 mm 3 mps 756 mmHg 90%
    08:00 -1°C° 0 mm 3 mps 756 mmHg 88%
    09:00 -1°C° 0 mm 4 mps 756 mmHg 87%
    10:00 -1°C° 0 mm 4 mps 756 mmHg 86%
    11:00 0°C° 0 mm 4 mps 756 mmHg 83%
    12:00 0°C° 0 mm 4 mps 755 mmHg 79%
    13:00 +1°C° 0 mm 4 mps 755 mmHg 76%
    14:00 0°C° 0 mm 4 mps 754 mmHg 78%
    15:00 -1°C° 0 mm 4 mps 754 mmHg 80%
    16:00 -1°C° 0 mm 4 mps 753 mmHg 82%
    17:00 -1°C° 0 mm 4 mps 753 mmHg 80%
    18:00 -1°C° 0 mm 5 mps 752 mmHg 79%
    19:00 -1°C° 0 mm 5 mps 751 mmHg 77%
    20:00 -2°C° 0 mm 6 mps 750 mmHg 76%
    21:00 -2°C° 0 mm 6 mps 749 mmHg 74%
    22:00 -2°C° 0 mm 6 mps 748 mmHg 73%
    23:00 -2°C° 0 mm 6 mps 747 mmHg 70%

    Tomorrow, 14 December, Thursday

    Time Temperature Precipitation Wind Pressure Humidity
    00:00 -2°C° 0 mm 7 mps 746 mmHg 67%
    01:00 -2°C° 0 mm 7 mps 745 mmHg 65%
    02:00 -1°C° 0.1 mm 7 mps 744 mmHg 64%
    03:00 -1°C° 0.1 mm 7 mps 743 mmHg 64%
    04:00 -1°C° 0.1 mm 7 mps 742 mmHg 63%
    05:00 -1°C° 0.3 mm 7 mps 741 mmHg 66%
    06:00 0°C° 0.3 mm 8 mps 740 mmHg 68%
    07:00 0°C° 0.3 mm 8 mps 739 mmHg 70%
    08:00 0°C° 0.9 mm 8 mps 739 mmHg 74%
    09:00 +1°C° 0.9 mm 8 mps 739 mmHg 77%
    10:00 +2°C° 0.9 mm 7 mps 738 mmHg 81%
    11:00 +2°C° 0.1 mm 7 mps 738 mmHg 81%
    12:00 +2°C° 0.1 mm 6 mps 738 mmHg 82%
    13:00 +2°C° 0.1 mm 5 mps 738 mmHg 82%
    14:00 +2°C° 0.7 mm 5 mps 739 mmHg 81%
    15:00 +1°C° 0.7 mm 6 mps 739 mmHg 80%
    16:00 +1°C° 0.7 mm 6 mps 739 mmHg 79%
    17:00 0°C° 0.4 mm 7 mps 740 mmHg 79%
    18:00 0°C° 0.4 mm 7 mps 741 mmHg 78%
    19:00 -1°C° 0.4 mm 7 mps 741 mmHg 78%
    20:00 -1°C° 0 mm 7 mps 742 mmHg 78%
    21:00 -2°C° 0 mm 6 mps 742 mmHg 78%
    22:00 -2°C° 0 mm 6 mps 743 mmHg 78%
    23:00 -2°C° 0 mm 6 mps 742 mmHg 78%

    Day after tomorrow, 15 December, Friday

    Time Temperature Precipitation Wind Pressure Humidity
    00:00 -2°C° 0 mm 6 mps 742 mmHg 78%
    01:00 -2°C° 0 mm 6 mps 742 mmHg 78%
    02:00 -2°C° 0.2 mm 6 mps 742 mmHg 78%
    03:00 -2°C° 0.2 mm 6 mps 741 mmHg 78%
    04:00 -1°C° 0.2 mm 6 mps 741 mmHg 78%
    05:00 0°C° 0.2 mm 5 mps 741 mmHg 79%
    06:00 0°C° 0.2 mm 5 mps 741 mmHg 79%
    07:00 0°C° 0.2 mm 4 mps 740 mmHg 80%
    08:00 0°C° 0.4 mm 4 mps 740 mmHg 82%
    09:00 0°C° 0.4 mm 4 mps 740 mmHg 85%
    10:00 0°C° 0.4 mm 4 mps 741 mmHg 88%
    11:00 0°C° 0.6 mm 4 mps 741 mmHg 89%
    12:00 0°C° 0.6 mm 4 mps 741 mmHg 91%
    13:00 0°C° 0.6 mm 4 mps 741 mmHg 93%
    14:00 0°C° 0.1 mm 4 mps 741 mmHg 92%
    15:00 0°C° 0.1 mm 5 mps 742 mmHg 90%
    16:00 -1°C° 0.1 mm 5 mps 743 mmHg 89%
    17:00 -1°C° 0 mm 4 mps 743 mmHg 89%
    18:00 -2°C° 0 mm 4 mps 744 mmHg 90%
    19:00 -1°C° 0 mm 3 mps 744 mmHg 91%
    20:00 -2°C° 0 mm 4 mps 745 mmHg 90%
    21:00 -2°C° 0 mm 4 mps 745 mmHg 90%
    22:00 -2°C° 0 mm 4 mps 745 mmHg 90%
    23:00 -2°C° 0 mm 3 mps 745 mmHg 90%

    16 December, Saturday

    Time Temperature Precipitation Wind Pressure Humidity
    00:00 -2°C° 0 mm 3 mps 745 mmHg 90%
    01:00 -2°C° 0 mm 3 mps 745 mmHg 90%
    02:00 -2°C° 0 mm 2 mps 745 mmHg 90%
    03:00 -2°C° 0 mm 2 mps 745 mmHg 90%
    04:00 -2°C° 0 mm 2 mps 745 mmHg 89%
    05:00 -2°C° 0 mm 2 mps 745 mmHg 90%
    06:00 -2°C° 0 mm 2 mps 745 mmHg 90%
    07:00 -1°C° 0 mm 2 mps 745 mmHg 90%
    08:00 -1°C° 0 mm 3 mps 745 mmHg 90%
    09:00 -1°C° 0 mm 3 mps 746 mmHg 90%
    10:00 0°C° 0 mm 3 mps 746 mmHg 90%
    11:00 0°C° 0 mm 3 mps 746 mmHg 91%
    12:00 0°C° 0 mm 3 mps 746 mmHg 92%
    13:00 +1°C° 0 mm 3 mps 746 mmHg 94%
    14:00 0°C° 0 mm 3 mps 747 mmHg 93%
    15:00 0°C° 0 mm 3 mps 747 mmHg 93%
    16:00 0°C° 0 mm 3 mps 748 mmHg 93%
    17:00 0°C° 0 mm 3 mps 748 mmHg 93%
    18:00 0°C° 0 mm 3 mps 749 mmHg 93%
    19:00 +1°C° 0 mm 2 mps 749 mmHg 94%
    20:00 +1°C° 0 mm 2 mps 750 mmHg 94%
    21:00 +1°C° 0 mm 2 mps 750 mmHg 95%
    22:00 +1°C° 0 mm 2 mps 751 mmHg 95%
    23:00 +1°C° 0 mm 2 mps 751 mmHg 95%

    17 December, Sunday

    Time Temperature Precipitation Wind Pressure Humidity
    00:00 +1°C° 0 mm 2 mps 752 mmHg 95%
    01:00 +1°C° 0 mm 2 mps 752 mmHg 95%
    02:00 +1°C° 0 mm 2 mps 752 mmHg 94%
    03:00 +1°C° 0 mm 2 mps 752 mmHg 94%
    04:00 +1°C° 0 mm 2 mps 753 mmHg 93%
    05:00 +1°C° 0 mm 2 mps 753 mmHg 93%
    06:00 +1°C° 0 mm 2 mps 754 mmHg 93%
    07:00 -1°C° 0 mm 2 mps 755 mmHg 93%
    08:00 +1°C° 0 mm 2 mps 755 mmHg 93%
    09:00 +1°C° 0 mm 2 mps 756 mmHg 93%
    10:00 0°C° 0 mm 3 mps 757 mmHg 93%
    11:00 0°C° 0 mm 3 mps 757 mmHg 93%
    12:00 0°C° 0 mm 3 mps 757 mmHg 93%
    13:00 +1°C° 0 mm 3 mps 758 mmHg 93%
    14:00 0°C° 0.1 mm 3 mps 758 mmHg 92%
    15:00 0°C° 0.1 mm 3 mps 759 mmHg 91%
    16:00 0°C° 0.1 mm 3 mps 759 mmHg 91%
    17:00 -1°C° 0.1 mm 3 mps 760 mmHg 91%
    18:00 -1°C° 0.1 mm 3 mps 760 mmHg 91%
    19:00 -1°C° 0.1 mm 3 mps 761 mmHg 91%
    20:00 -2°C° 0 mm 3 mps 761 mmHg 92%
    21:00 -2°C° 0 mm 2 mps 761 mmHg 92%
    22:00 -2°C° 0 mm 2 mps 761 mmHg 93%
    23:00 -2°C° 0 mm 2 mps 762 mmHg 93%

    18 December, Monday

    Time Temperature Precipitation Wind Pressure Humidity
    00:00 -2°C° 0 mm 2 mps 762 mmHg 93%
    01:00 -3°C° 0 mm 2 mps 762 mmHg 93%
    02:00 -3°C° 0 mm 2 mps 762 mmHg 93%
    03:00 -3°C° 0 mm 2 mps 762 mmHg 93%
    04:00 -3°C° 0 mm 2 mps 762 mmHg 92%
    05:00 -3°C° 0 mm 2 mps 763 mmHg 92%
    06:00 -3°C° 0 mm 2 mps 763 mmHg 92%
    07:00 -3°C° 0 mm 2 mps 763 mmHg 92%
    08:00 -3°C° 0 mm 2 mps 763 mmHg 91%
    09:00 -3°C° 0 mm 2 mps 763 mmHg 90%
    10:00 -2°C° 0 mm 2 mps 763 mmHg 89%
    11:00 -2°C° 0 mm 2 mps 763 mmHg 89%
    12:00 -2°C° 0 mm 2 mps 762 mmHg 88%
    13:00 -1°C° 0 mm 2 mps 762 mmHg 87%
    14:00 -2°C° 0 mm 2 mps 762 mmHg 89%
    15:00 0°C° 0 mm 1 mps 762 mmHg 91%
    16:00 -1°C° 0 mm 1 mps 762 mmHg 93%
    17:00 -1°C° 0 mm 1 mps 762 mmHg 93%
    18:00 -1°C° 0 mm 1 mps 762 mmHg 92%
    19:00 -1°C° 0 mm 1 mps 762 mmHg 92%
    20:00 0°C° 0 mm 1 mps 762 mmHg 92%
    21:00 0°C° 0 mm 1 mps 763 mmHg 91%
    22:00 0°C° 0 mm 1 mps 763 mmHg 91%
    23:00 0°C° 0 mm 1 mps 763 mmHg 90%
    Show more